| time (UTC) | temp F | wind direction | speed MPH | gust MPH | rain 1hr in | rain 24hr in | rain mn in | humidity % | barometer mb |
| 20260505004004 | 77 | 205 | 6.0 | 10.0 | 0.00 | 0.00 | 0.00 | 44 | 1009.1 |
| 20260505003503 | 77 | 227 | 5.0 | 10.0 | 0.00 | 0.00 | 0.00 | 44 | 1009.0 |
| 20260505003011 | 77 | 223 | 3.0 | 8.0 | 0.00 | 0.00 | 0.00 | 45 | 1009.0 |
| 20260505002502 | 77 | 236 | 5.0 | 10.0 | 0.00 | 0.00 | 0.00 | 45 | 1009.0 |
| 20260505002006 | 77 | 217 | 6.0 | 10.0 | 0.00 | 0.00 | 0.00 | 45 | 1009.0 |
| 20260505001516 | 77 | 217 | 4.0 | 9.0 | 0.00 | 0.00 | 0.00 | 45 | 1009.1 |
| 20260505001006 | 78 | 240 | 3.0 | 9.0 | 0.00 | 0.00 | 0.00 | 46 | 1009.1 |
| 20260505000506 | 77 | 254 | 4.0 | 11.0 | 0.00 | 0.00 | 0.00 | 44 | 1009.1 |
| 20260505000020 | 77 | 209 | 4.0 | 11.0 | 0.00 | 0.00 | 0.00 | 46 | 1009.2 |
| 20260504235507 | 78 | 242 | 3.0 | 9.0 | 0.00 | 0.00 | 0.00 | 45 | 1009.2 |
| 20260504235009 | 77 | 244 | 4.0 | 9.0 | 0.00 | 0.00 | 0.00 | 44 | 1009.3 |
| 20260504234503 | 77 | 196 | 3.0 | 9.0 | 0.00 | 0.00 | 0.00 | 44 | 1009.4 |
| 20260504234002 | 77 | 198 | 4.0 | 9.0 | 0.00 | 0.00 | 0.00 | 42 | 1009.3 |
| 20260504233503 | 78 | 185 | 4.0 | 11.0 | 0.00 | 0.00 | 0.00 | 41 | 1009.4 |
| 20260504233010 | 77 | 248 | 5.0 | 11.0 | 0.00 | 0.00 | 0.00 | 41 | 1009.4 |
| 20260504232503 | 77 | 239 | 4.0 | 11.0 | 0.00 | 0.00 | 0.00 | 40 | 1009.4 |
| 20260504232002 | 77 | 223 | 3.0 | 7.0 | 0.00 | 0.00 | 0.00 | 42 | 1009.4 |
| 20260504231514 | 78 | 181 | 3.0 | 6.0 | 0.00 | 0.00 | 0.00 | 40 | 1009.4 |
| 20260504231007 | 78 | 217 | 3.0 | 9.0 | 0.00 | 0.00 | 0.00 | 39 | 1009.5 |
| 20260504230508 | 78 | 237 | 3.0 | 10.0 | 0.00 | 0.00 | 0.00 | 40 | 1009.5 |
| 20260504230020 | 77 | 249 | 4.0 | 10.0 | 0.00 | 0.00 | 0.00 | 38 | 1009.5 |
| 20260504225506 | 77 | 211 | 4.0 | 8.0 | 0.00 | 0.00 | 0.00 | 38 | 1009.5 |
| 20260504225008 | 78 | 231 | 4.0 | 8.0 | 0.00 | 0.00 | 0.00 | 39 | 1009.6 |
| 20260504224527 | 78 | 250 | 3.0 | 8.0 | 0.00 | 0.00 | 0.00 | 39 | 1009.6 |
| 20260504224008 | 77 | 244 | 3.0 | 10.0 | 0.00 | 0.00 | 0.00 | 42 | 1009.6 |
| 20260504223511 | 77 | 245 | 3.0 | 10.0 | 0.00 | 0.00 | 0.00 | 39 | 1009.6 |
| 20260504223007 | 78 | 258 | 5.0 | 12.0 | 0.00 | 0.00 | 0.00 | 40 | 1009.6 |
| 20260504222503 | 77 | 248 | 4.0 | 12.0 | 0.00 | 0.00 | 0.00 | 41 | 1009.6 |
| 20260504222003 | 76 | 257 | 4.0 | 10.0 | 0.00 | 0.00 | 0.00 | 42 | 1009.6 |
| 20260504221511 | 77 | 155 | 3.0 | 12.0 | 0.00 | 0.00 | 0.00 | 41 | 1009.7 |
| 20260504221003 | 77 | 239 | 7.0 | 12.0 | 0.00 | 0.00 | 0.00 | 41 | 1009.8 |
| 20260504220503 | 77 | 195 | 3.0 | 8.0 | 0.00 | 0.00 | 0.00 | 41 | 1009.9 |
| 20260504220017 | 78 | 242 | 2.0 | 7.0 | 0.00 | 0.00 | 0.00 | 41 | 1010.0 |
| 20260504215510 | 78 | 203 | 4.0 | 11.0 | 0.00 | 0.00 | 0.00 | 40 | 1010.0 |
| 20260504215008 | 77 | 180 | 5.0 | 11.0 | 0.00 | 0.00 | 0.00 | 39 | 1010.0 |
| 20260504214534 | 77 | 263 | 5.0 | 9.0 | 0.00 | 0.00 | 0.00 | 39 | 1010.0 |
| 20260504214009 | 77 | 202 | 4.0 | 12.0 | 0.00 | 0.00 | 0.00 | 37 | 1010.1 |
| 20260504213507 | 76 | 184 | 4.0 | 12.0 | 0.00 | 0.00 | 0.00 | 40 | 1010.0 |
| 20260504213028 | 76 | 246 | 6.0 | 11.0 | 0.00 | 0.00 | 0.00 | 40 | 1010.0 |
| 20260504212506 | 76 | 283 | 7.0 | 11.0 | 0.00 | 0.00 | 0.00 | 41 | 1010.0 |
| 20260504212001 | 76 | 185 | 4.0 | 10.0 | 0.00 | 0.00 | 0.00 | 42 | 1010.0 |
| 20260504211507 | 77 | 205 | 4.0 | 10.0 | 0.00 | 0.00 | 0.00 | 42 | 1010.0 |
| 20260504211003 | 76 | 198 | 4.0 | 10.0 | 0.00 | 0.00 | 0.00 | 43 | 1010.1 |
| 20260504210503 | 76 | 267 | 6.0 | 10.0 | 0.00 | 0.00 | 0.00 | 41 | 1010.0 |
| 20260504210019 | 76 | 180 | 5.0 | 10.0 | 0.00 | 0.00 | 0.00 | 45 | 1010.1 |
| 20260504205504 | 75 | 228 | 5.0 | 9.0 | 0.00 | 0.00 | 0.00 | 44 | 1010.2 |
| 20260504205007 | 75 | 227 | 4.0 | 9.0 | 0.00 | 0.00 | 0.00 | 45 | 1010.2 |
| 20260504204520 | 75 | 158 | 3.0 | 11.0 | 0.00 | 0.00 | 0.00 | 47 | 1010.2 |
| 20260504204006 | 74 | 221 | 4.0 | 12.0 | 0.00 | 0.00 | 0.00 | 46 | 1010.2 |
| 20260504203509 | 75 | 259 | 6.0 | 12.0 | 0.00 | 0.00 | 0.00 | 46 | 1010.3 |
| 20260504203022 | 75 | 214 | 4.0 | 10.0 | 0.00 | 0.00 | 0.00 | 47 | 1010.3 |
| 20260504202508 | 74 | 229 | 4.0 | 9.0 | 0.00 | 0.00 | 0.00 | 46 | 1010.3 |
| 20260504202010 | 74 | 221 | 4.0 | 9.0 | 0.00 | 0.00 | 0.00 | 49 | 1010.3 |
| 20260504201524 | 74 | 202 | 4.0 | 9.0 | 0.00 | 0.00 | 0.00 | 48 | 1010.3 |
| 20260504201008 | 73 | 231 | 5.0 | 9.0 | 0.00 | 0.00 | 0.00 | 49 | 1010.4 |
| 20260504200503 | 73 | 232 | 4.0 | 10.0 | 0.00 | 0.00 | 0.00 | 49 | 1010.4 |
| 20260504200017 | 73 | 162 | 4.0 | 10.0 | 0.00 | 0.00 | 0.00 | 49 | 1010.5 |
| 20260504195503 | 73 | 167 | 3.0 | 9.0 | 0.00 | 0.00 | 0.00 | 49 | 1010.4 |
| 20260504195007 | 72 | 242 | 4.0 | 8.0 | 0.00 | 0.00 | 0.00 | 49 | 1010.4 |
| 20260504194517 | 73 | 202 | 4.0 | 8.0 | 0.00 | 0.00 | 0.00 | 50 | 1010.4 |
| 20260504194003 | 74 | 215 | 3.0 | 9.0 | 0.00 | 0.00 | 0.00 | 48 | 1010.4 |
| 20260504193506 | 74 | 199 | 3.0 | 9.0 | 0.00 | 0.00 | 0.00 | 50 | 1010.4 |
| 20260504193020 | 73 | 244 | 4.0 | 9.0 | 0.00 | 0.00 | 0.00 | 50 | 1010.4 |
| 20260504192512 | 73 | 232 | 3.0 | 8.0 | 0.00 | 0.00 | 0.00 | 51 | 1010.4 |
| 20260504192005 | 73 | 219 | 4.0 | 8.0 | 0.00 | 0.00 | 0.00 | 51 | 1010.4 |
| 20260504191504 | 72 | 217 | 3.0 | 10.0 | 0.00 | 0.00 | 0.00 | 51 | 1010.4 |
| 20260504191003 | 72 | 238 | 5.0 | 10.0 | 0.00 | 0.00 | 0.00 | 51 | 1010.4 |
| 20260504190506 | 72 | 257 | 5.0 | 8.0 | 0.00 | 0.00 | 0.00 | 51 | 1010.4 |
| 20260504190011 | 73 | 225 | 4.0 | 8.0 | 0.00 | 0.00 | 0.00 | 52 | 1010.5 |
| 20260504185503 | 72 | 149 | 2.0 | 8.0 | 0.00 | 0.00 | 0.00 | 53 | 1010.6 |
| 20260504185003 | 72 | 208 | 3.0 | 8.0 | 0.00 | 0.00 | 0.00 | 52 | 1010.6 |
| 20260504184508 | 72 | 184 | 3.0 | 8.0 | 0.00 | 0.00 | 0.00 | 49 | 1010.6 |
| 20260504184002 | 72 | 148 | 3.0 | 9.0 | 0.00 | 0.00 | 0.00 | 48 | 1010.7 |
| 20260504183503 | 72 | 206 | 5.0 | 9.0 | 0.00 | 0.00 | 0.00 | 49 | 1010.6 |
| 20260504183013 | 72 | 212 | 3.0 | 8.0 | 0.00 | 0.00 | 0.00 | 51 | 1010.7 |
| 20260504182503 | 71 | 237 | 2.0 | 8.0 | 0.00 | 0.00 | 0.00 | 49 | 1010.7 |
| 20260504182002 | 71 | 255 | 3.0 | 8.0 | 0.00 | 0.00 | 0.00 | 51 | 1010.7 |
| 20260504181510 | 70 | 148 | 4.0 | 10.0 | 0.00 | 0.00 | 0.00 | 50 | 1010.7 |
| 20260504181004 | 70 | 255 | 5.0 | 10.0 | 0.00 | 0.00 | 0.00 | 50 | 1010.7 |
| 20260504180503 | 70 | 265 | 5.0 | 10.0 | 0.00 | 0.00 | 0.00 | 51 | 1010.6 |
| 20260504180006 | 70 | 207 | 3.0 | 9.0 | 0.00 | 0.00 | 0.00 | 57 | 1010.6 |
| 20260504175504 | 69 | 200 | 4.0 | 9.0 | 0.00 | 0.00 | 0.00 | 56 | 1010.6 |
| 20260504175003 | 69 | 212 | 4.0 | 7.0 | 0.00 | 0.00 | 0.00 | 58 | 1010.5 |
| 20260504174510 | 69 | 254 | 3.0 | 7.0 | 0.00 | 0.00 | 0.00 | 53 | 1010.5 |
| 20260504174002 | 69 | 244 | 3.0 | 8.0 | 0.00 | 0.00 | 0.00 | 52 | 1010.6 |
| 20260504173503 | 69 | 217 | 3.0 | 8.0 | 0.00 | 0.00 | 0.00 | 53 | 1010.5 |
| 20260504173010 | 68 | 200 | 3.0 | 8.0 | 0.00 | 0.00 | 0.00 | 58 | 1010.5 |
| 20260504172505 | 68 | 229 | 3.0 | 8.0 | 0.00 | 0.00 | 0.00 | 59 | 1010.5 |
| 20260504172003 | 68 | 201 | 4.0 | 8.0 | 0.00 | 0.00 | 0.00 | 61 | 1010.5 |
| 20260504171512 | 67 | 202 | 2.0 | 8.0 | 0.00 | 0.00 | 0.00 | 64 | 1010.5 |
| 20260504171003 | 67 | 242 | 4.0 | 8.0 | 0.00 | 0.00 | 0.00 | 65 | 1010.5 |
| 20260504170503 | 66 | 169 | 2.0 | 7.0 | 0.00 | 0.00 | 0.00 | 66 | 1010.6 |
| 20260504151003 | 57 | 66 | 0.0 | 2.0 | 0.00 | 0.00 | 0.00 | 82 | 1010.2 |
| 20260504150508 | 56 | 66 | 1.0 | 2.0 | 0.00 | 0.00 | 0.00 | 83 | 1010.2 |
| 20260504141008 | 53 | 66 | 0.0 | 2.0 | 0.00 | 0.00 | 0.00 | 88 | 1009.7 |
| 20260504140504 | 53 | 66 | 1.0 | 2.0 | 0.00 | 0.00 | 0.00 | 89 | 1009.7 |
| 20260504130503 | 51 | 66 | 0.0 | 2.0 | 0.00 | 0.00 | 0.00 | 88 | 1009.3 |
| 20260504110506 | 53 | 66 | 0.0 | 2.0 | 0.00 | 0.00 | 0.00 | 84 | 1009.3 |
| 20260504100506 | 53 | 66 | 0.0 | 2.0 | 0.00 | 0.00 | 0.00 | 83 | 1009.4 |
| 20260504082004 | 56 | 66 | 0.0 | 3.0 | 0.00 | 0.00 | 0.00 | 75 | 1009.1 |
| 20260504081526 | 56 | 66 | 1.0 | 2.0 | 0.00 | 0.00 | 0.00 | 75 | 1009.2 |
| 20260504081007 | 56 | 66 | 1.0 | 2.0 | 0.00 | 0.00 | 0.00 | 74 | 1009.2 |
| 20260504080512 | 57 | 66 | 1.0 | 2.0 | 0.00 | 0.00 | 0.00 | 74 | 1009.2 |
| 20260504050504 | 65 | 32 | 1.0 | 3.0 | 0.00 | 0.00 | 0.00 | 59 | 1009.3 |
| 20260504050020 | 65 | 32 | 2.0 | 3.0 | 0.00 | 0.00 | 0.00 | 59 | 1009.3 |
| 20260504045503 | 65 | 29 | 1.0 | 3.0 | 0.00 | 0.00 | 0.00 | 58 | 1009.4 |
| 20260504045010 | 65 | 29 | 1.0 | 2.0 | 0.00 | 0.00 | 0.00 | 57 | 1009.4 |
| 20260504044521 | 66 | 27 | 1.0 | 3.0 | 0.00 | 0.00 | 0.00 | 57 | 1009.3 |
| 20260504044006 | 66 | 27 | 1.0 | 3.0 | 0.00 | 0.00 | 0.00 | 56 | 1009.3 |
| 20260504043506 | 66 | 27 | 1.0 | 3.0 | 0.00 | 0.00 | 0.00 | 55 | 1009.2 |
| 20260504043030 | 67 | 26 | 1.0 | 3.0 | 0.00 | 0.00 | 0.00 | 55 | 1009.2 |
| 20260504042510 | 67 | 24 | 1.0 | 3.0 | 0.00 | 0.00 | 0.00 | 55 | 1009.2 |
| 20260504042011 | 68 | 24 | 1.0 | 3.0 | 0.00 | 0.00 | 0.00 | 54 | 1009.2 |
| 20260504041529 | 68 | 17 | 0.0 | 2.0 | 0.00 | 0.00 | 0.00 | 52 | 1009.3 |
| 20260504041002 | 69 | 17 | 0.0 | 2.0 | 0.00 | 0.00 | 0.00 | 51 | 1009.2 |
| 20260504040503 | 69 | 17 | 0.0 | 2.0 | 0.00 | 0.00 | 0.00 | 50 | 1009.2 |
| 20260504040012 | 70 | 17 | 0.0 | 1.0 | 0.00 | 0.00 | 0.00 | 50 | 1009.2 |
| 20260504035504 | 70 | 17 | 0.0 | 2.0 | 0.00 | 0.00 | 0.00 | 49 | 1009.2 |
| 20260504035007 | 71 | 17 | 0.0 | 3.0 | 0.00 | 0.00 | 0.00 | 48 | 1009.2 |
| 20260504034522 | 71 | 17 | 1.0 | 3.0 | 0.00 | 0.00 | 0.00 | 46 | 1009.2 |
| 20260504034003 | 72 | 333 | 0.0 | 2.0 | 0.00 | 0.00 | 0.00 | 45 | 1009.1 |
| 20260504033507 | 72 | 333 | 0.0 | 2.0 | 0.00 | 0.00 | 0.00 | 44 | 1009.0 |
| 20260504033022 | 73 | 333 | 0.0 | 2.0 | 0.00 | 0.00 | 0.00 | 43 | 1009.0 |
| 20260504032507 | 73 | 333 | 1.0 | 2.0 | 0.00 | 0.00 | 0.00 | 43 | 1008.9 |
| 20260504032010 | 73 | 333 | 0.0 | 2.0 | 0.00 | 0.00 | 0.00 | 42 | 1008.9 |
| 20260504031526 | 74 | 333 | 0.0 | 3.0 | 0.00 | 0.00 | 0.00 | 41 | 1009.0 |
| 20260504031009 | 74 | 340 | 1.0 | 3.0 | 0.00 | 0.00 | 0.00 | 40 | 1009.0 |
| 20260504030507 | 75 | 347 | 1.0 | 3.0 | 0.00 | 0.00 | 0.00 | 39 | 1009.1 |
| 20260504030009 | 75 | 310 | 1.0 | 8.0 | 0.00 | 0.00 | 0.00 | 38 | 1009.1 |
| 20260504025503 | 75 | 339 | 1.0 | 8.0 | 0.00 | 0.00 | 0.00 | 38 | 1009.2 |
| 20260504025009 | 76 | 343 | 1.0 | 8.0 | 0.00 | 0.00 | 0.00 | 38 | 1009.2 |
| 20260504024516 | 76 | 352 | 2.0 | 6.0 | 0.00 | 0.00 | 0.00 | 38 | 1009.2 |
| 20260504024003 | 76 | 348 | 2.0 | 8.0 | 0.00 | 0.00 | 0.00 | 37 | 1009.2 |
| 20260504023505 | 77 | 352 | 3.0 | 8.0 | 0.00 | 0.00 | 0.00 | 36 | 1009.1 |
| 20260504023018 | 78 | 340 | 2.0 | 6.0 | 0.00 | 0.00 | 0.00 | 36 | 1009.1 |
| 20260504022508 | 78 | 327 | 0.0 | 5.0 | 0.00 | 0.00 | 0.00 | 35 | 1009.1 |
| 20260504022007 | 78 | 286 | 1.0 | 9.0 | 0.00 | 0.00 | 0.00 | 37 | 1009.1 |
| 20260504021523 | 78 | 263 | 1.0 | 9.0 | 0.00 | 0.00 | 0.00 | 36 | 1009.2 |
| 20260504021005 | 78 | 226 | 2.0 | 6.0 | 0.00 | 0.00 | 0.00 | 35 | 1009.2 |
| 20260504020509 | 78 | 331 | 1.0 | 10.0 | 0.00 | 0.00 | 0.00 | 35 | 1009.2 |
| 20260504020034 | 78 | 322 | 4.0 | 10.0 | 0.00 | 0.00 | 0.00 | 34 | 1009.3 |
| 20260504015509 | 79 | 315 | 2.0 | 5.0 | 0.00 | 0.00 | 0.00 | 36 | 1009.3 |
| 20260504015009 | 79 | 209 | 1.0 | 7.0 | 0.00 | 0.00 | 0.00 | 36 | 1009.3 |
| 20260504014511 | 79 | 260 | 1.0 | 7.0 | 0.00 | 0.00 | 0.00 | 38 | 1009.3 |
| 20260504014003 | 79 | 301 | 1.0 | 10.0 | 0.00 | 0.00 | 0.00 | 39 | 1009.3 |
| 20260504013503 | 79 | 281 | 4.0 | 10.0 | 0.00 | 0.00 | 0.00 | 40 | 1009.3 |
| 20260504013019 | 78 | 262 | 2.0 | 9.0 | 0.00 | 0.00 | 0.00 | 40 | 1009.4 |
| 20260504012504 | 78 | 329 | 4.0 | 9.0 | 0.00 | 0.00 | 0.00 | 40 | 1009.4 |
| 20260504012007 | 79 | 321 | 4.0 | 8.0 | 0.00 | 0.00 | 0.00 | 39 | 1009.5 |
| 20260504011522 | 79 | 304 | 1.0 | 8.0 | 0.00 | 0.00 | 0.00 | 41 | 1009.5 |
| 20260504011008 | 79 | 328 | 3.0 | 8.0 | 0.00 | 0.00 | 0.00 | 40 | 1009.5 |
| 20260504010506 | 79 | 315 | 1.0 | 8.0 | 0.00 | 0.00 | 0.00 | 41 | 1009.5 |
| 20260504010025 | 80 | 326 | 1.0 | 5.0 | 0.00 | 0.00 | 0.00 | 41 | 1009.6 |
| 20260504005507 | 80 | 315 | 1.0 | 6.0 | 0.00 | 0.00 | 0.00 | 40 | 1009.7 |
| 20260504005002 | 80 | 259 | 1.0 | 9.0 | 0.00 | 0.00 | 0.00 | 42 | 1009.7 |
| 20260504004526 | 79 | 326 | 3.0 | 9.0 | 0.00 | 0.00 | 0.00 | 43 | 1009.8 |